• In Belarus
  • List of Countries
  • For 7 days
  • Water Temperature
  • Satellite Maps
  • Weather Map
  • Weather Widgets
  • user-avatar
    Login

    Hourly Weather Wien

    Today, 26 September, Wednesday

    Time Temperature Precipitation Wind Pressure Humidity
    00:00 +6°C° 0 mm 2 mps 760 mmHg 67%
    01:00 +6°C° 0 mm 1 mps 761 mmHg 68%
    02:00 +6°C° 0 mm 1 mps 760 mmHg 69%
    03:00 +6°C° 0 mm 1 mps 760 mmHg 70%
    04:00 +6°C° 0 mm 1 mps 760 mmHg 71%
    05:00 +6°C° 0 mm 1 mps 760 mmHg 69%
    06:00 +6°C° 0 mm 0 mps 760 mmHg 68%
    07:00 +6°C° 0 mm 0 mps 760 mmHg 66%
    08:00 +9°C° 0 mm 1 mps 760 mmHg 59%
    09:00 +10°C° 0 mm 2 mps 760 mmHg 51%
    10:00 +12°C° 0 mm 3 mps 760 mmHg 44%
    11:00 +14°C° 0 mm 3 mps 759 mmHg 40%
    12:00 +16°C° 0 mm 3 mps 759 mmHg 37%
    13:00 +17°C° 0 mm 3 mps 758 mmHg 34%
    14:00 +17°C° 0 mm 3 mps 757 mmHg 35%
    15:00 +17°C° 0 mm 3 mps 757 mmHg 36%
    16:00 +17°C° 0 mm 3 mps 756 mmHg 36%
    17:00 +14°C° 0 mm 3 mps 756 mmHg 41%
    18:00 +13°C° 0 mm 2 mps 756 mmHg 45%
    19:00 +10°C° 0 mm 2 mps 756 mmHg 50%
    20:00 +10°C° 0 mm 2 mps 757 mmHg 52%
    21:00 +10°C° 0 mm 2 mps 757 mmHg 53%
    22:00 +10°C° 0 mm 1 mps 757 mmHg 55%
    23:00 +10°C° 0 mm 1 mps 757 mmHg 56%

    Tomorrow, 27 September, Thursday

    Time Temperature Precipitation Wind Pressure Humidity
    00:00 +9°C° 0 mm 1 mps 756 mmHg 57%
    01:00 +9°C° 0 mm 1 mps 756 mmHg 58%
    02:00 +9°C° 0 mm 1 mps 756 mmHg 58%
    03:00 +9°C° 0 mm 1 mps 756 mmHg 58%
    04:00 +8°C° 0 mm 1 mps 755 mmHg 58%
    05:00 +9°C° 0 mm 1 mps 755 mmHg 58%
    06:00 +10°C° 0 mm 1 mps 755 mmHg 57%
    07:00 +10°C° 0 mm 1 mps 755 mmHg 56%
    08:00 +13°C° 0 mm 1 mps 755 mmHg 49%
    09:00 +15°C° 0 mm 1 mps 755 mmHg 42%
    10:00 +19°C° 0 mm 1 mps 755 mmHg 36%
    11:00 +20°C° 0 mm 1 mps 754 mmHg 33%
    12:00 +22°C° 0 mm 1 mps 754 mmHg 30%
    13:00 +23°C° 0 mm 1 mps 753 mmHg 27%
    14:00 +23°C° 0 mm 1 mps 753 mmHg 29%
    15:00 +23°C° 0 mm 1 mps 752 mmHg 31%
    16:00 +23°C° 0 mm 1 mps 752 mmHg 33%
    17:00 +21°C° 0 mm 1 mps 751 mmHg 36%
    18:00 +19°C° 0 mm 1 mps 751 mmHg 39%
    19:00 +16°C° 0 mm 1 mps 751 mmHg 42%
    20:00 +15°C° 0 mm 1 mps 751 mmHg 44%
    21:00 +15°C° 0 mm 1 mps 751 mmHg 46%
    22:00 +14°C° 0 mm 1 mps 750 mmHg 48%
    23:00 +14°C° 0 mm 1 mps 750 mmHg 50%

    Day after tomorrow, 28 September, Friday

    Time Temperature Precipitation Wind Pressure Humidity
    00:00 +13°C° 0 mm 1 mps 749 mmHg 51%
    01:00 +13°C° 0 mm 1 mps 749 mmHg 53%
    02:00 +13°C° 0 mm 1 mps 749 mmHg 54%
    03:00 +12°C° 0 mm 1 mps 748 mmHg 56%
    04:00 +12°C° 0 mm 1 mps 748 mmHg 57%
    05:00 +12°C° 0 mm 1 mps 748 mmHg 58%
    06:00 +12°C° 0 mm 1 mps 747 mmHg 59%
    07:00 +13°C° 0 mm 1 mps 747 mmHg 59%
    08:00 +15°C° 0 mm 1 mps 747 mmHg 54%
    09:00 +17°C° 0 mm 2 mps 747 mmHg 48%
    10:00 +20°C° 0 mm 2 mps 747 mmHg 42%
    11:00 +21°C° 0 mm 2 mps 746 mmHg 41%
    12:00 +23°C° 0 mm 2 mps 746 mmHg 39%
    13:00 +24°C° 0 mm 3 mps 746 mmHg 38%
    14:00 +24°C° 0 mm 2 mps 745 mmHg 40%
    15:00 +24°C° 0 mm 2 mps 745 mmHg 42%
    16:00 +23°C° 0 mm 2 mps 744 mmHg 45%
    17:00 +21°C° 0 mm 2 mps 744 mmHg 51%
    18:00 +19°C° 0 mm 2 mps 745 mmHg 57%
    19:00 +17°C° 0 mm 2 mps 745 mmHg 63%
    20:00 +16°C° 0 mm 2 mps 745 mmHg 65%
    21:00 +15°C° 0 mm 2 mps 745 mmHg 67%
    22:00 +14°C° 0 mm 3 mps 745 mmHg 69%
    23:00 +13°C° 0 mm 3 mps 745 mmHg 73%

    29 September, Saturday

    Time Temperature Precipitation Wind Pressure Humidity
    00:00 +13°C° 0 mm 3 mps 745 mmHg 76%
    01:00 +12°C° 0 mm 3 mps 745 mmHg 80%
    02:00 +12°C° 0 mm 3 mps 745 mmHg 80%
    03:00 +12°C° 0 mm 3 mps 745 mmHg 80%
    04:00 +12°C° 0 mm 3 mps 745 mmHg 80%
    05:00 +12°C° 0.2 mm 3 mps 746 mmHg 80%
    06:00 +11°C° 0.2 mm 4 mps 746 mmHg 79%
    07:00 +11°C° 0.2 mm 4 mps 746 mmHg 79%
    08:00 +11°C° 0.5 mm 4 mps 746 mmHg 76%
    09:00 +11°C° 0.5 mm 4 mps 747 mmHg 74%
    10:00 +11°C° 0.5 mm 4 mps 747 mmHg 71%
    11:00 +12°C° 0.2 mm 4 mps 747 mmHg 68%
    12:00 +13°C° 0.2 mm 4 mps 748 mmHg 64%
    13:00 +13°C° 0.2 mm 4 mps 748 mmHg 61%
    14:00 +13°C° 0 mm 4 mps 748 mmHg 59%
    15:00 +14°C° 0 mm 4 mps 748 mmHg 57%
    16:00 +14°C° 0 mm 4 mps 748 mmHg 54%
    17:00 +13°C° 0 mm 4 mps 748 mmHg 58%
    18:00 +12°C° 0 mm 3 mps 748 mmHg 61%
    19:00 +11°C° 0 mm 3 mps 749 mmHg 64%
    20:00 +10°C° 0 mm 3 mps 749 mmHg 65%
    21:00 +10°C° 0 mm 3 mps 749 mmHg 67%
    22:00 +9°C° 0 mm 3 mps 749 mmHg 68%
    23:00 +8°C° 0 mm 3 mps 749 mmHg 70%

    30 September, Sunday

    Time Temperature Precipitation Wind Pressure Humidity
    00:00 +8°C° 0 mm 3 mps 749 mmHg 71%
    01:00 +7°C° 0 mm 3 mps 749 mmHg 73%
    02:00 +7°C° 0 mm 3 mps 749 mmHg 74%
    03:00 +7°C° 0 mm 3 mps 749 mmHg 76%
    04:00 +7°C° 0 mm 3 mps 749 mmHg 77%
    05:00 +7°C° 0 mm 3 mps 748 mmHg 77%
    06:00 +7°C° 0 mm 3 mps 748 mmHg 77%
    07:00 +7°C° 0 mm 2 mps 748 mmHg 77%
    08:00 +9°C° 0 mm 2 mps 748 mmHg 70%
    09:00 +12°C° 0 mm 2 mps 748 mmHg 64%
    10:00 +14°C° 0 mm 2 mps 748 mmHg 57%
    11:00 +15°C° 0 mm 2 mps 747 mmHg 54%
    12:00 +17°C° 0 mm 2 mps 747 mmHg 50%
    13:00 +18°C° 0 mm 2 mps 746 mmHg 46%
    14:00 +18°C° 0 mm 2 mps 746 mmHg 47%
    15:00 +18°C° 0 mm 2 mps 745 mmHg 47%
    16:00 +18°C° 0 mm 2 mps 745 mmHg 48%
    17:00 +18°C° 0 mm 1 mps 745 mmHg 53%
    18:00 +15°C° 0 mm 1 mps 745 mmHg 59%
    19:00 +13°C° 0 mm 1 mps 745 mmHg 65%
    20:00 +13°C° 0 mm 1 mps 745 mmHg 66%
    21:00 +12°C° 0 mm 1 mps 745 mmHg 68%
    22:00 +12°C° 0 mm 1 mps 745 mmHg 70%
    23:00 +12°C° 0 mm 1 mps 745 mmHg 72%

    1 October, Monday

    Time Temperature Precipitation Wind Pressure Humidity
    00:00 +12°C° 0 mm 1 mps 745 mmHg 74%
    01:00 +11°C° 0 mm 1 mps 744 mmHg 75%
    02:00 +11°C° 0 mm 1 mps 744 mmHg 77%
    03:00 +11°C° 0 mm 1 mps 744 mmHg 79%
    04:00 +10°C° 0 mm 1 mps 744 mmHg 81%
    05:00 +11°C° 0 mm 1 mps 744 mmHg 81%
    06:00 +11°C° 0 mm 1 mps 744 mmHg 80%
    07:00 +11°C° 0 mm 1 mps 744 mmHg 80%
    08:00 +13°C° 0 mm 1 mps 744 mmHg 72%
    09:00 +15°C° 0 mm 1 mps 744 mmHg 65%
    10:00 +18°C° 0 mm 1 mps 744 mmHg 57%
    11:00 +18°C° 0 mm 2 mps 744 mmHg 54%
    12:00 +19°C° 0 mm 2 mps 743 mmHg 51%
    13:00 +20°C° 0 mm 2 mps 743 mmHg 48%
    14:00 +20°C° 0 mm 2 mps 743 mmHg 49%
    15:00 +20°C° 0 mm 2 mps 743 mmHg 50%
    16:00 +20°C° 0 mm 3 mps 743 mmHg 51%
    17:00 +18°C° 0 mm 3 mps 743 mmHg 58%
    18:00 +16°C° 0 mm 3 mps 744 mmHg 64%
    19:00 +14°C° 0 mm 4 mps 744 mmHg 70%
    20:00 +13°C° 0 mm 4 mps 745 mmHg 71%
    21:00 +13°C° 0 mm 4 mps 745 mmHg 72%
    22:00 +12°C° 0 mm 5 mps 745 mmHg 73%
    23:00 +12°C° 0 mm 5 mps 745 mmHg 71%
    Show more